Погода в Новоюрьевке

Украина / Николаевская область     47°37′44″N   32°40′51″E
В апреле 2022 года жителям России запретили посещать сайт meteo.paraplan.net по решению Генеральной прокуратуры. Аудитория сайта уменьшилась в 10 раз. Владельцы сайта не видят смысла в поддержке погодного сервера в таких условиях. Сайт будет закрыт в октябре.
темп.,
°C
ветер,
м/с
пор.,
м/с
влажн.,
%
обл.,
%
осадки,
мм/ч
давл.,
гПа
погр.,
м
25 сентября, вс
вс2500:00+8з410755 0.0 1018220
03:00+8з49745 0.0 1019179
06:00+7з49815 0.0 1018176
09:00+11з59605 0.0 1019453
12:00+16з684194 0.0 10191582
15:00+18з683591 0.0 10182036
18:00+17з33408 0.0 101760
21:00+13ююз3455100 0.0 101751
26 сентября, пн
пн2600:00+13ю2270100 0.0 101638
03:00+14ююз3989100 0.1 1015256
06:00+13юз3794100 0.1 1015135
09:00+16юз497686 0.2 1015558
12:00+21ююз684924 0.0 10141546
15:00+22ююз794381 0.0 10131763
18:00+19ююз695486 0.0 1012648
21:00+16ю4107298 0.0 1011253
27 сентября, вт
вт2700:00+15ю4109146 0.0 1010261
03:00+14ююв3897100 0.0 1009203
06:00+15ююв41098100 0.0 1007290
09:00+16юв4991100 0.1 1006333
12:00+22ююв6744100 0.0 10051215
15:00+23ю61035100 0.0 10021132
18:00+21ююз61153100 0.0 1001729
21:00+19ю61176100 0.1 1001670
28 сентября, ср
ср2800:00+17ююз61091100 3.3 1001510
03:00+17юз5118798 4.0 1001585
06:00+14зюз37959 0.0 1001200
09:00+16з46725 0.0 1003370
12:00+20з45500 0.0 1004922
15:00+22з45416 0.0 10041428
18:00+20зсз3448100 0.0 100568
21:00+17ссв34595 0.0 100755
29 сентября, чт
чт2900:00+15всв33645 0.0 100832
03:00+15вюв3464100 0.0 100972
06:00+15вюв2364100 0.0 101067
09:00+17вюв4659100 0.0 1011293
12:00+22юв5644100 0.0 1011953
15:00+24ююв4536100 0.0 10111822
18:00+22вюв4643100 0.0 1011106
21:00+19вюв4851100 0.0 1013145